Flag for U.S.A. Weather past 2 weeks in Everett, Washington, U.S.A.

Now
84 °F

Sunny.


Feels Like: 82 °F
Forecast: 57 / 85 °F
Wind: 9 mph from North

Location: Snohomish County Airport

Current Time: Jul 31, 2015 at 5:41:53 PM

Latest Report: Jul 31, 2015 at 4:53 PM


Visibility: 10 mi

Pressure: 30.02 "Hg

Humidity: 30%

Dew point: 49 °F

Location of EverettLocation

Historic Weather in Everett — Graph

°F

Everett temperature yesterday

Maximum temperature yesterday: 87 °F (at 4:53 PM)
Minimum temperature yesterday: 62 °F (at 5:53 AM)
Average temperature yesterday: 74 °F

Past Weeks' High & Low Weather Summary

 TemperatureHumidityPressure
High93 °F (Jul 19, 4:53 PM)93% (Jul 25, 12:53 AM)30.30 "Hg (Jul 25, 12:53 AM)
Low55 °F (Jul 17, 4:53 AM)22% (Jul 19, 4:53 PM)29.89 "Hg (Jul 22, 6:53 PM)
Average66 °F63%30.06 "Hg
* Reported Jul 16 3:53 PM — Jul 31 3:53 PM, Everett, Weather by CustomWeather, © 2015

Note: Actual official high and low records may vary slightly from our data, if they occured in-between our weather recording intervals... More about our weather records

Advertising

Everett weather history for previous 24 hours

 ConditionsComfort  
Time TempWeatherWind HumidityBarometerVisibility
3:53 PM
Fri, Jul 31
87 °FSunny.6 mph24%30.04 "Hg10 mi
2:53 PM85 °FSunny.6 mph31%30.05 "Hg10 mi
1:53 PM83 °FSunny.7 mph33%30.07 "Hg10 mi
12:53 PM80 °FSunny.6 mph38%30.08 "Hg10 mi
11:53 AM76 °FSunny.5 mph43%30.09 "Hg10 mi
10:53 AM75 °FSunny.5 mph43%30.11 "Hg10 mi
9:53 AM72 °FSunny.6 mph48%30.11 "Hg10 mi
8:53 AM70 °FSunny.No wind47%30.11 "Hg10 mi
7:53 AM67 °FSunny.5 mph53%30.10 "Hg10 mi
6:53 AM64 °FSunny.5 mph58%30.09 "Hg10 mi
5:53 AM64 °FClear.3 mph50%30.07 "Hg10 mi
4:53 AM66 °FClear.3 mph42%30.07 "Hg10 mi
3:53 AM67 °FClear.No wind39%30.06 "Hg10 mi
2:53 AM69 °FClear.5 mph38%30.06 "Hg10 mi
1:53 AM69 °FClear.No wind41%30.06 "Hg10 mi
12:53 AM70 °FClear.5 mph39%30.06 "Hg10 mi
11:53 PM
Thu, Jul 30
70 °FClear.8 mph41%30.06 "Hg10 mi
10:53 PM68 °FClear.6 mph47%30.06 "Hg10 mi
9:53 PM70 °FClear.8 mph47%30.04 "Hg10 mi
8:53 PM79 °FSunny.5 mph32%30.02 "Hg10 mi
7:53 PM83 °FSunny.6 mph28%30.02 "Hg10 mi
6:53 PM84 °FSunny.7 mph30%30.03 "Hg10 mi
5:53 PM85 °FSunny.7 mph30%30.04 "Hg10 mi
Weather by CustomWeather, © 2015

See weather overviewHow to use our weather pages